GAOFEN 3 DEB, 42680

Orbit data source: Space-Track

GAOFEN 3 DEB, 42680 is space debris in SSO originally from a launch on Tue, 09 Aug 2016 UTC launched from the Taiyaun Space Center, China (TSC). Debris objects in space refer to the collection of defunct objects orbiting the Earth. Examples of debris include non-operational satellites, rocket bodies, and fragments generated from explosions, collisions, or faulty payload assembly.

Loading next visibility...
Identifier
42680, 2016-049E
Orbit
SSO
Country
Flag of CNCN / PRC
Related business
Manufacturer
Unknown
Mission
Spacecraft
Bus & Motor
Unknown
Mass
Unknown
Launch date (UTC)
2016-08-09 (9 years ago)
Launch vehicle
Unknown
Launch site
Taiyaun Space Center, China (TSC)
Object type
Payload
Rocket body
Debris
Shape & HBR
Unknown shape, 0.1 m
Radar Cross Section
Small (<0.1 m²)

Expand to show TLE details & history
Last TLE update: 2 days ago

TLE from 2 days ago
0 GAOFEN 3 DEB
1 42680U 16049E   25339.47377217  .00004357  00000-0  11071-2 0  9991
2 42680  98.4317 349.5218 0015713 345.6515  14.4231 14.51167542488249
Epoch: 2025-12-05T11:22Z
TLE epoch observation values (Epoch: 2025-12-05T11:22:13.915Z)
Latitude
-0.00005°
Longitude
104.44848°
Altitude
713.998 km
Speed
7.504 km/s
True Right ascension
23h 18m 05s
True Declination
0° 00' 00"
Sunlit
Object was in daylight at epoch
Visualization orbit readout
Latitude
Unknown
Longitude
Unknown
Altitude
Unknown
Speed
Unknown
Apparent Right ascension
Unknown
Apparent Declination
Unknown
Sunlit
N/A
Visualization observer readout
Local Sidereal Time
17:23:58
Azimuth
Unknown
Elevation
Unknown
Doppler factor
Unknown
Orbital elements
Apogee altitude
730.093 km
Perigee altitude
707.79 km
Semi-major axis
7,097.079 km
Eccentricity
0.00157
Inclination
98.4317°
RAAN
349.5218°
Arg. of periapsis
345.6515°
True anomaly
14.46803°
Mean anomaly
14.4231°
Eccentric anomaly
14.44556°
Mean motion
3.63014 °/min
Orbital period
99.17 mins
BSTAR
0.0011071
Loading maneuver chart data...
Computing Atmospheric mass density...
Loading historical data...
Loading historical data...
Loading historical data...
Loading historical data...
Loading historical data...
Loading historical data...
Loading historical data...
Other satellites on launch #49 in the year 2016 (2016-08-09 UTC)

Documentation

Showing up to 5 results
|